Погода Костанай

Хотите узнать прогноз погоды в Костанае? Тогда Вам сюда: Погода в Костанае

Поиск расширенной информации на нашем сайте:

Полезная информация:

Новости сайта



02.01.2020
Опубликован Долгосрочный прогноз погоды по городам России и ближнего зарубежья на январь 2020 года.
Карты: Прогноз на январь и февраль 2020 года, Сравнение прогнозируемой аномалии приземной температуры воздуха на январь 2020 года по разным моделям.




Погода Костанай - сегодня

Время (UTC), дата Ветер
(°,м/с) 
Видим.   Явления Облачность Т
(°С)
Тd
(°С)
f(%) Тe
(°С)
Pmin
(гПа)
dP
(гПа)
Po
(мм)
O2
(г/м3)
Тmin Tmax R s Состояние
почвы
12 22.10.21 230 (ЮЗ) 20000 м    9/9 1000 м 
[Cu med, cong]
+8.9 +1.3 59 +8  1009.4  1.3  743  290           
15 22.10.21 200 (Ю) н/о    9/9 600 м 
[Sc]
+8.1 +2.9 70 +7  1010.1  0.7  744  291    +9.8       
18 22.10.21 200 (Ю) н/о    9/0 средняя, верхняя 
[Ac trans|Ci]
+6.3 +2.1 74 +4  1009.5  -0.7  743  292    +9.8       
21 22.10.21 200 (Ю) н/о    9/0 верхняя 
[Ci]
+7.2 +3.2 76 +6  1009.5  0.1  743  291           
00 23.10.21 200 (Ю) н/о    1/0 верхняя 
[Ci fib]
+7.2 +3.5 77 +7  1009.6  0.1  743  291           
03 23.10.21 200 (Ю) 20000 м    9/3 600 м средняя 
[Sc|Ac trans]
+7.3 +2.3 71 +7  1011.2  1.5  745  292           
06 23.10.21 200 (Ю) 20000 м    9/0 средняя, верхняя 
[Ac trans|Ci fib]
+10.4 +2.7 59 +9  1012.6  1.6  746  289  +6.3         
09 23.10.21 200 (Ю) 20000 м    8/3 1000 м средняя, верхняя 
[Cu hum|Ac trans|Ci fib]
+13 +3 51 +12  1013.3  0.8  746  287           
12 23.10.21 200 (Ю) 20000 м    8/0 средняя, верхняя 
[Ac lent|Ci fib]
+11.6 +3.2 56 +11  1014.6  1.3  747  288           
15 23.10.21 200 (Ю) н/о    6/0 верхняя 
[Ci]
+9.8 +4.1 68 +9  1016.9  2.2  749  291    +13.4       
18 23.10.21 200 (Ю) н/о    9/0 средняя, верхняя 
[Ac trans|Ci]
+8.3 +3 69 +8  1017.8  0.7  749  293    +13.4       
21 23.10.21 200 (Ю) н/о    9/9 600 м 
[Sc]
+9.6 +5 73 +9  1017.5  -0.1  749  291           
00 24.10.21 200 (Ю) н/о    9/9 600 м 
[Sc]
+9 +4.8 75 +8  1017.9  0.4  750  292           
03 24.10.21 200 (Ю) 20000 м    9/6 600 м средняя 
[Sc|Ac trans]
+8.6 +4.5 75 +9  1018.9  0.8  750  292           
06 24.10.21 180 (Ю) 20000 м    9/9 600 м 
[Cu Sc]
+10.1 +4.3 67 +10  1018.2  -0.5  750  291  +8.3         
09 24.10.21 180 (Ю) 20000 м    9/6 1000 м средняя 
[Cu med, cong|Ac lent]
+15.6 +5.6 51 +15  1014.7  -3.1  748  284           
12 24.10.21 200 (Ю) 8-16  20000 м  пыльный позёмок  8/4 1000 м средняя, верхняя 
[Cu med, cong|Ac lent|Ci fib]
+14.8 +5.8 55 +14  1013.4  -1.4  746  284           
15 24.10.21 180 (Ю) 6{16}  н/о    9/4 1000 м средняя 
[Cu med, cong|Ac trans]
+12.6 +4.5 58 +12  1013.5  746  287    +15.6       
18 24.10.21 180 (Ю) н/о    9/3 1000 м средняя 
[Sc|Ac trans]
+11.5 +4.6 63 +10  1013.3  -0.2  746  288    +15.6       
21 24.10.21 200 (Ю) н/о    9/9 600 м 
[Sc]
+10.8 +6.1 73 +10  1013.7  0.3  747  288           
00 25.10.21 200 (Ю) н/о    9/9 600 м 
[Sc]
+9.3 +5.6 78 +10  1014.2  0.5  747  290           
03 25.10.21 200 (Ю) 20000 м  в посл. час ливневой дождь  10/10 600 м кучево-дожд. 
[Cb cap]
+7.1 +5.1 87 +7  1014.8  0.4  747  293      0.3     
06 25.10.21 160 (Ю) 10 км  слаб. ливневой дождь  10/10 600 м кучево-дожд. 
[Cb cap]
+8 +5.8 86 +8  1014.9  0.1  747  292  +7.1    0.3     
09 25.10.21 160 (Ю) 20000 м  в посл. час ливневой дождь  9/6 600 м средняя 
[Cu med, cong|Ac lent]
+8.4 +5.9 84 +9  1013.4  -1.5  746  291           
12 25.10.21 160 (Ю) 10 км  слаб. ливневой дождь  10/10 600 м кучево-дожд. 
[Cb cap]
+7.9 +6.4 90 +9  1011.8  -1.6  745  291           
Время (UTC), дата Ветер
(°,м/с) 
Видим.   Явления Облачность Т
(°С)
Тd
(°С)
f(%) Тe
(°С)
Pmin
(гПа)
dP
(гПа)
Po
(мм)
O2
(г/м3)
Тmin Tmax R s Состояние
почвы

Для получения пояснительной информации подведите курсор к названию столбца.

ПОГОДА Костанай - архив

Всё, что Вы хотите узнать о погоде Костанай - удобно и подробно!

Выберите нужную дату (начиная с 1 января 2019* года) и нажмите кнопку "Найти".
Будут отображены архивные сводки погоды по пункту Костанай, начиная с указанной даты.


Отображать данные в формате CSV (для использования в таблицах Excel)


Внимание! Наш архив погоды предназначен исключительно для личного некоммерческого использования в познавательных целях. Если Вам необходимы официальные справки о состоянии погоды (для производственных, юридических, коммерческих и т.п. целей), обращайтесь в органы Росгидромета.

*Примечание: данная дата относится к архиву по метеостанциям СССР (Россия, СНГ, Балтия).
Архив по метеостанциям Зарубежной Европы и Азии (кроме Китая) хранится 10 дней, по другим регионам земного шара (Китай, Африка, Америка, Австралия, Океания) - 1 день.

Костанай - район местоположения метеостанции


Название, широта, долгота, высота метеостанции:
Костанай (город) 53.2°ш. 63.6°д. 156 м над ур. моря [Казахстан]

Дополнительная информация

В oтличие oт бoльшинства пoгoдных сайтoв мы публикуем пoдрoбную метеoинфoрмацию в детальнoм прoфессиoнальнoм фoрмате.

Характеристики температуры и влажнoсти вoздуха измеряются на высoте 2 м в тени вдали oт зданий и деревьев.
Скoрoсть ветра измеряется на высoте 10 м (на урoвне рoста челoвека скoрoсть ветра ниже в 1.5-2 раза). Если метеoстанция нахoдится в гoрoде или в лесу, тo скoрoсть ветра занижена на 2-4 м/с пo сравнению с oткрытым местoм. Скoрoсть ветра над акватoриями крупных рек и oзёр, а также на вершинах хoлмoв на 2-5 м/с выше, чем в oбычных услoвиях.
Атмoсфернoе давление в разных тoчках местнoсти мoжет значительнo oтличаться oт давления на метеoстанции, в зависимoсти oт услoвий рельефа (при пoдъёме на 10 м давление пoнижается примернo на 1 мм рт.ст.).